Погода в Жерновце

Россия / Орловская область     52°30′56″N   35°45′15″E
темп.,
°C
ветер,
м/с
пор.,
м/с
влажн.,
%
обл.,
%
осадки,
мм/ч
давл.,
гПа
погр.,
м
4 марта, чт
чт400:00−2з4109473 0.0 1017290
03:00−2зюз6129037 0.0 1016287
06:00−2зюз713910 0.0 1013313
09:00−1зюз8168117 0.0 1010521
12:00+1зюз8148311 0.0 1008673
15:00+3зюз8148610 0.0 1006686
18:00+2зюз6138957 0.0 1004576
21:00+2з5109379 0.1 1003369
5 марта, пт
пт500:000зсз3896100 0.1 1004486
03:00−1зсз479699 0.1 1005362
06:00−2сз3597100 0.3 1007316
09:00−2ссв2390100 0.6 1008232
12:00−1с2275100 0.0 1009578
15:000с2372100 0.1 1010694
18:00−2ссв2281100 0.1 101195
21:00−2св2285100 0.1 101466
6 марта, сб
сб600:00−3св248799 0.0 1015202
03:00−4ссв228583 0.0 1016104
06:00−5вюв01850 0.0 101521
09:00−4ююз238310 0.0 1016214
12:00−3зсз567998 0.3 1016649
15:00−3зсз466999 0.4 1017884
18:00−3сз477760 0.0 1018688
21:00−6ссз697478 0.1 1020815
7 марта, вс
вс700:00−6зсз47740 0.0 1020498
03:00−6юз511710 0.0 1018466
06:00−6юз8166547 0.0 1015668
09:00−4юз11186374 0.0 1012893
12:00−2зюз121972100 0.0 10081248
15:000зюз121969100 0.1 10041480
18:000зюз12207399 0.0 10021201
21:00−2сз8139589 1.6 1003856
8 марта, пн
пн800:00−3зсз51170100 0.6 1004938
03:00−4зсз7137580 0.6 10051032
06:00−6зсз6127518 0.0 10061024
09:00−6зсз7107542 0.0 10081143
12:00−5зсз6969100 0.1 10091196
15:00−5сз6862100 0.1 10111289
18:00−6сз576997 0.0 1012973
21:00−7сз367898 0.1 1014725